sat.trackr.live / text

‹ back to catalog

ONEWEB-0678

NORAD 56714 · 2023-068E

PAYLOAD ACTIVE UNKNOWN

§ Identity

Operator
Country
UK
Launch date
2023-05-20
Launch site
AFWTR
Launch vehicle
Mass (kg)
RCS (m²)

Purposes: comms

External: N2YO · Heavens-Above · Gunter

§ Orbital elements

Epoch: 2026-09-19T22:15:29.245248Z

Period
109.46 min
Inclination
87.8993°
Eccentricity
0.0002056
Mean motion
13.15547384 rev/d
Perigee alt
1,200.2 km
Apogee alt
1,203.3 km
Semi-major
7,579.9 km
B*
5.4680e-4
RAAN
240.3087°
Arg perigee
76.6797°
Mean anomaly
283.4563°
Rev number
16,174

§ Raw data

ONEWEB-06781 56714U 23068E   26262.92742182  .00000219  00000+0  54680-3 0  99922 56714  87.8993 240.3087 0002056  76.6797 283.4563 13.15547384161749

JSON: /api/v1/satellites/56714 · /tle

For live sub-satellite position, see the globe view (requires WebGL).

§ Visibility from observer

Set your observer location to see the next 7 days of passes ≥ 10°. The values pass through the URL so the page stays shareable.

No JS? Fill the form by hand. The geolocation button needs JavaScript.